Location: Santa Barbara
(34.4500°N, 119.7700°W)
Time: 15:26:37
(UTC-07:00)

Cosmos 1892 Rocket - Visible Passes

Search period start: 01 August 2014 00:00
Search period end: 11 August 2014 00:00
Orbit: 609 x 634 km, 82.5° (Epoch: 31 July)

Date Brightness Start Highest point End Pass type
(mag) Time Alt. Az. Time Alt. Az. Time Alt. Az.
01 Aug 4.7 21:40:42 10° NNW 21:44:56 42° W 21:48:44 12° SSW visible
02 Aug 4.7 20:21:26 10° NNE 20:25:12 26° ENE 20:28:57 10° SE visible
02 Aug 5.9 21:59:34 10° NW 22:02:55 21° W 22:06:15 10° SW visible
03 Aug 3.8 20:39:06 10° N 20:43:29 53° E 20:47:49 10° SSE visible
03 Aug 6.7 22:20:07 10° WNW 22:20:49 10° W 22:21:31 10° W visible
04 Aug 3.8 20:57:10 10° N 21:01:39 75° W 21:06:04 10° S visible
05 Aug 5.1 21:15:38 10° NNW 21:19:43 36° W 21:23:46 10° SSW visible
06 Aug 6.3 21:34:39 10° NW 21:37:41 18° W 21:40:43 10° SW visible
08 Aug 4.1 20:32:01 10° NNW 20:36:27 64° W 20:40:49 10° S visible
09 Aug 5.5 20:50:34 10° NNW 20:54:30 31° W 20:58:23 10° SSW visible
10 Aug 6.5 21:09:47 10° NW 21:12:26 16° W 21:15:05 10° WSW visible
